Tracking 22458 objects as of 2-Mar-2021
HD Live streaming from Space Station
objects crossing your sky now

DMSP 5D-2 F12 DEB

Track DMSP 5D-2 F12 DEB now!
10-day predictions


NORAD ID: 41835
Int'l Code: 1994-057F
Perigee: 826.0 km
Apogee: 850.4 km
Inclination: 99.0 °
Period: 101.5 minutes
Semi major axis: 7209 km
RCS: Unknown
Launch date: August 29, 1994
Source: United States (US)
Launch site: AIR FORCE WESTERN TEST RANGE (AFWTR)

Note: This is SATELLITE DEBRIS
aabbcc
Your satellite tracking list
Your tracking list is empty




NASA's NSSDC Master Catalog

Two Line Element Set (TLE):
1 41835U 94057F   21060.63845223  .00000029  00000-0  36466-4 0  9998
2 41835  99.0103 120.7823 0016948  40.0448 320.1972 14.18321145225223
Source of the keplerian elements: AFSPC